Year,Month,Day,Hour,Minute,Value (Times are PST for temperature in C)
2009,06,07,00,00,14.50
2009,06,07,00,01,14.50
2009,06,07,00,02,14.50
2009,06,07,00,03,14.50
2009,06,07,00,04,14.50
2009,06,07,00,05,14.50
2009,06,07,00,06,14.50
2009,06,07,00,07,14.50
2009,06,07,00,08,14.50
2009,06,07,00,09,14.50
2009,06,07,00,10,14.50
2009,06,07,00,11,14.50
2009,06,07,00,12,14.40
2009,06,07,00,13,14.40
2009,06,07,00,14,14.40
2009,06,07,00,15,14.40
2009,06,07,00,16,14.40
2009,06,07,00,17,14.30
2009,06,07,00,18,14.30
2009,06,07,00,19,14.30
2009,06,07,00,20,14.30
2009,06,07,00,21,14.30
2009,06,07,00,22,14.30
2009,06,07,00,23,14.30
2009,06,07,00,24,14.30
2009,06,07,00,25,14.30
2009,06,07,00,26,14.30
2009,06,07,00,27,14.30
2009,06,07,00,28,14.30
2009,06,07,00,29,14.30
2009,06,07,00,30,14.30
2009,06,07,00,31,14.20
2009,06,07,00,32,14.30
2009,06,07,00,33,14.30
2009,06,07,00,34,14.30
2009,06,07,00,35,14.30
2009,06,07,00,36,14.30
2009,06,07,00,37,14.30
2009,06,07,00,38,14.30
2009,06,07,00,39,14.30
2009,06,07,00,40,14.40
2009,06,07,00,41,14.40
2009,06,07,00,42,14.40
2009,06,07,00,43,14.40
2009,06,07,00,44,14.40
2009,06,07,00,45,14.50
2009,06,07,00,46,14.50
2009,06,07,00,47,14.50
2009,06,07,00,48,14.50
2009,06,07,00,49,14.50
2009,06,07,00,50,14.50
2009,06,07,00,51,14.50
2009,06,07,00,52,14.50
2009,06,07,00,53,14.50
2009,06,07,00,54,14.50
2009,06,07,00,55,14.50
2009,06,07,00,56,14.50
2009,06,07,00,57,14.50
2009,06,07,00,58,14.60
2009,06,07,00,59,14.50
2009,06,07,01,00,14.60
2009,06,07,01,01,14.60
2009,06,07,01,02,14.60
2009,06,07,01,03,14.60
2009,06,07,01,04,14.60
2009,06,07,01,05,14.60
2009,06,07,01,06,14.50
2009,06,07,01,07,14.60
2009,06,07,01,08,14.50
2009,06,07,01,09,14.50
2009,06,07,01,10,14.60
2009,06,07,01,11,14.50
2009,06,07,01,12,14.60
2009,06,07,01,13,14.60
2009,06,07,01,14,14.60
2009,06,07,01,15,14.60
2009,06,07,01,16,14.60
2009,06,07,01,17,14.60
2009,06,07,01,18,14.60
2009,06,07,01,19,14.60
2009,06,07,01,20,14.60
2009,06,07,01,21,14.60
2009,06,07,01,22,14.60
2009,06,07,01,23,14.60
2009,06,07,01,24,14.60
2009,06,07,01,25,14.60
2009,06,07,01,26,14.60
2009,06,07,01,27,14.60
2009,06,07,01,28,14.60
2009,06,07,01,29,14.60
2009,06,07,01,30,14.60
2009,06,07,01,31,14.60
2009,06,07,01,32,14.60
2009,06,07,01,33,14.60
2009,06,07,01,34,14.70
2009,06,07,01,35,14.70
2009,06,07,01,36,14.70
2009,06,07,01,37,14.70
2009,06,07,01,38,14.70
2009,06,07,01,39,14.70
2009,06,07,01,40,14.70
2009,06,07,01,41,14.70
2009,06,07,01,42,14.70
2009,06,07,01,43,14.70
2009,06,07,01,44,14.70
2009,06,07,01,45,14.70
2009,06,07,01,46,14.70
2009,06,07,01,47,14.70
2009,06,07,01,48,14.70
2009,06,07,01,49,14.70
2009,06,07,01,50,14.70
2009,06,07,01,51,14.70
2009,06,07,01,52,14.70
2009,06,07,01,53,14.70
2009,06,07,01,54,14.70
2009,06,07,01,55,14.80
2009,06,07,01,56,14.80
2009,06,07,01,57,14.80
2009,06,07,01,58,14.80
2009,06,07,01,59,14.80
2009,06,07,02,00,14.80
2009,06,07,02,01,14.80
2009,06,07,02,02,14.80
2009,06,07,02,03,14.80
2009,06,07,02,04,14.80
2009,06,07,02,05,14.80
2009,06,07,02,06,14.80
2009,06,07,02,07,14.80
2009,06,07,02,08,14.80
2009,06,07,02,09,14.80
2009,06,07,02,10,14.80
2009,06,07,02,11,14.80
2009,06,07,02,12,14.80
2009,06,07,02,13,14.80
2009,06,07,02,14,14.80
2009,06,07,02,15,14.80
2009,06,07,02,16,14.80
2009,06,07,02,17,14.80
2009,06,07,02,18,14.80
2009,06,07,02,19,14.80
2009,06,07,02,20,14.80
2009,06,07,02,21,14.80
2009,06,07,02,22,14.80
2009,06,07,02,23,14.80
2009,06,07,02,24,14.80
2009,06,07,02,25,14.80
2009,06,07,02,26,14.80
2009,06,07,02,27,14.80
2009,06,07,02,28,14.80
2009,06,07,02,29,14.80
2009,06,07,02,30,14.80
2009,06,07,02,31,14.70
2009,06,07,02,32,14.70
2009,06,07,02,33,14.70
2009,06,07,02,34,14.70
2009,06,07,02,35,14.70
2009,06,07,02,36,14.70
2009,06,07,02,37,14.60
2009,06,07,02,38,14.60
2009,06,07,02,39,14.60
2009,06,07,02,40,14.50
2009,06,07,02,41,14.50
2009,06,07,02,42,14.40
2009,06,07,02,43,14.40
2009,06,07,02,44,14.40
2009,06,07,02,45,14.30
2009,06,07,02,46,14.30
2009,06,07,02,47,14.20
2009,06,07,02,48,14.20
2009,06,07,02,49,14.20
2009,06,07,02,50,14.10
2009,06,07,02,51,14.10
2009,06,07,02,52,14.10
2009,06,07,02,53,14.00
2009,06,07,02,54,14.00
2009,06,07,02,55,13.90
2009,06,07,02,56,13.90
2009,06,07,02,57,13.90
2009,06,07,02,58,13.90
2009,06,07,02,59,13.80
2009,06,07,03,00,13.80
2009,06,07,03,01,13.80
2009,06,07,03,02,13.80
2009,06,07,03,03,13.80
2009,06,07,03,04,13.80
2009,06,07,03,05,13.70
2009,06,07,03,06,13.70
2009,06,07,03,07,13.70
2009,06,07,03,08,13.70
2009,06,07,03,09,13.70
2009,06,07,03,10,13.70
2009,06,07,03,11,13.70
2009,06,07,03,12,13.70
2009,06,07,03,13,13.70
2009,06,07,03,14,13.70
2009,06,07,03,15,13.70
2009,06,07,03,16,13.70
2009,06,07,03,17,13.60
2009,06,07,03,18,13.60
2009,06,07,03,19,13.60
2009,06,07,03,20,13.50
2009,06,07,03,21,13.50
2009,06,07,03,22,13.40
2009,06,07,03,23,13.40
2009,06,07,03,24,13.30
2009,06,07,03,25,13.30
2009,06,07,03,26,13.30
2009,06,07,03,27,13.20
2009,06,07,03,28,13.20
2009,06,07,03,29,13.10
2009,06,07,03,30,13.10
2009,06,07,03,31,13.10
2009,06,07,03,32,13.00
2009,06,07,03,33,13.00
2009,06,07,03,34,12.90
2009,06,07,03,35,12.90
2009,06,07,03,36,12.90
2009,06,07,03,37,12.90
2009,06,07,03,38,12.80
2009,06,07,03,39,12.80
2009,06,07,03,40,12.80
2009,06,07,03,41,12.80
2009,06,07,03,42,12.80
2009,06,07,03,43,12.80
2009,06,07,03,44,12.70
2009,06,07,03,45,12.70
2009,06,07,03,46,12.70
2009,06,07,03,47,12.70
2009,06,07,03,48,12.70
2009,06,07,03,49,12.70
2009,06,07,03,50,12.70
2009,06,07,03,51,12.70
2009,06,07,03,52,12.70
2009,06,07,03,53,12.70
2009,06,07,03,54,12.60
2009,06,07,03,55,12.60
2009,06,07,03,56,12.60
2009,06,07,03,57,12.60
2009,06,07,03,58,12.60
2009,06,07,03,59,12.60
2009,06,07,04,00,12.60
2009,06,07,04,01,12.60
2009,06,07,04,02,12.60
2009,06,07,04,03,12.60
2009,06,07,04,04,12.60
2009,06,07,04,05,12.60
2009,06,07,04,06,12.60
2009,06,07,04,07,12.60
2009,06,07,04,08,12.60
2009,06,07,04,09,12.60
2009,06,07,04,10,12.60
2009,06,07,04,11,12.60
2009,06,07,04,12,12.60
2009,06,07,04,13,12.60
2009,06,07,04,14,12.70
2009,06,07,04,15,12.60
2009,06,07,04,16,12.60
2009,06,07,04,17,12.70
2009,06,07,04,18,12.70
2009,06,07,04,19,12.70
2009,06,07,04,20,12.70
2009,06,07,04,21,12.70
2009,06,07,04,22,12.70
2009,06,07,04,23,12.70
2009,06,07,04,24,12.70
2009,06,07,04,25,12.80
2009,06,07,04,26,12.80
2009,06,07,04,27,12.80
2009,06,07,04,28,12.80
2009,06,07,04,29,12.80
2009,06,07,04,30,12.80
2009,06,07,04,31,12.80
2009,06,07,04,32,12.80
2009,06,07,04,33,12.80
2009,06,07,04,34,12.80
2009,06,07,04,35,12.80
2009,06,07,04,36,12.80
2009,06,07,04,37,12.80
2009,06,07,04,38,12.80
2009,06,07,04,39,12.80
2009,06,07,04,40,12.80
2009,06,07,04,41,12.80
2009,06,07,04,42,12.80
2009,06,07,04,43,12.80
2009,06,07,04,44,12.80
2009,06,07,04,45,12.70
2009,06,07,04,46,12.70
2009,06,07,04,47,12.70
2009,06,07,04,48,12.70
2009,06,07,04,49,12.70
2009,06,07,04,50,12.70
2009,06,07,04,51,12.70
2009,06,07,04,52,12.70
2009,06,07,04,53,12.70
2009,06,07,04,54,12.70
2009,06,07,04,55,12.70
2009,06,07,04,56,12.70
2009,06,07,04,57,12.70
2009,06,07,04,58,12.70
2009,06,07,04,59,12.70
2009,06,07,05,00,12.70
2009,06,07,05,01,12.70
2009,06,07,05,02,12.70
2009,06,07,05,03,12.70
2009,06,07,05,04,12.70
2009,06,07,05,05,12.70
2009,06,07,05,06,12.70
2009,06,07,05,07,12.70
2009,06,07,05,08,12.70
2009,06,07,05,09,12.70
2009,06,07,05,10,12.70
2009,06,07,05,11,12.70
2009,06,07,05,12,12.70
2009,06,07,05,13,12.70
2009,06,07,05,14,12.70
2009,06,07,05,15,12.70
2009,06,07,05,16,12.70
2009,06,07,05,17,12.70
2009,06,07,05,18,12.70
2009,06,07,05,19,12.70
2009,06,07,05,20,12.70
2009,06,07,05,21,12.70
2009,06,07,05,22,12.60
2009,06,07,05,23,12.60
2009,06,07,05,24,12.60
2009,06,07,05,25,12.60
2009,06,07,05,26,12.60
2009,06,07,05,27,12.60
2009,06,07,05,28,12.60
2009,06,07,05,29,12.50
2009,06,07,05,30,12.50
2009,06,07,05,31,12.50
2009,06,07,05,32,12.40
2009,06,07,05,33,12.40
2009,06,07,05,34,12.40
2009,06,07,05,35,12.40
2009,06,07,05,36,12.30
2009,06,07,05,37,12.30
2009,06,07,05,38,12.30
2009,06,07,05,39,12.30
2009,06,07,05,40,12.30
2009,06,07,05,41,12.20
2009,06,07,05,42,12.20
2009,06,07,05,43,12.20
2009,06,07,05,44,12.20
2009,06,07,05,45,12.10
2009,06,07,05,46,12.10
2009,06,07,05,47,12.10
2009,06,07,05,48,12.10
2009,06,07,05,49,12.00
2009,06,07,05,50,12.00
2009,06,07,05,51,12.00
2009,06,07,05,52,11.90
2009,06,07,05,53,11.90
2009,06,07,05,54,11.90
2009,06,07,05,55,11.90
2009,06,07,05,56,11.80
2009,06,07,05,57,11.80
2009,06,07,05,58,11.80
2009,06,07,05,59,11.80
2009,06,07,06,00,11.80
2009,06,07,06,01,11.80
2009,06,07,06,02,11.80
2009,06,07,06,03,11.80
2009,06,07,06,04,11.80
2009,06,07,06,05,11.80
2009,06,07,06,06,11.80
2009,06,07,06,07,11.70
2009,06,07,06,08,11.70
2009,06,07,06,09,11.70
2009,06,07,06,10,11.70
2009,06,07,06,11,11.70
2009,06,07,06,12,11.70
2009,06,07,06,13,11.70
2009,06,07,06,14,11.60
2009,06,07,06,15,11.70
2009,06,07,06,16,11.60
2009,06,07,06,17,11.60
2009,06,07,06,18,11.70
2009,06,07,06,19,11.70
2009,06,07,06,20,11.70
2009,06,07,06,21,11.70
2009,06,07,06,22,11.70
2009,06,07,06,23,11.70
2009,06,07,06,24,11.70
2009,06,07,06,25,11.70
2009,06,07,06,26,11.70
2009,06,07,06,27,11.70
2009,06,07,06,28,11.70
2009,06,07,06,29,11.70
2009,06,07,06,30,11.70
2009,06,07,06,31,11.70
2009,06,07,06,32,11.70
2009,06,07,06,33,11.70
2009,06,07,06,34,11.70
2009,06,07,06,35,11.80
2009,06,07,06,36,11.80
2009,06,07,06,37,11.80
2009,06,07,06,38,11.80
2009,06,07,06,39,11.80
2009,06,07,06,40,11.80
2009,06,07,06,41,11.80
2009,06,07,06,42,11.80
2009,06,07,06,43,11.80
2009,06,07,06,44,11.90
2009,06,07,06,45,11.90
2009,06,07,06,46,11.90
2009,06,07,06,47,11.90
2009,06,07,06,48,11.90
2009,06,07,06,49,12.00
2009,06,07,06,50,12.00
2009,06,07,06,51,12.00
2009,06,07,06,52,12.10
2009,06,07,06,53,12.10
2009,06,07,06,54,12.10
2009,06,07,06,55,12.20
2009,06,07,06,56,12.20
2009,06,07,06,57,12.20
2009,06,07,06,58,12.20
2009,06,07,06,59,12.30
2009,06,07,07,00,12.30
2009,06,07,07,01,12.30
2009,06,07,07,02,12.40
2009,06,07,07,03,12.40
2009,06,07,07,04,12.40
2009,06,07,07,05,12.50
2009,06,07,07,06,12.50
2009,06,07,07,07,12.50
2009,06,07,07,08,12.60
2009,06,07,07,09,12.60
2009,06,07,07,10,12.60
2009,06,07,07,11,12.60
2009,06,07,07,12,12.60
2009,06,07,07,13,12.70
2009,06,07,07,14,12.70
2009,06,07,07,15,12.70
2009,06,07,07,16,12.70
2009,06,07,07,17,12.70
2009,06,07,07,18,12.80
2009,06,07,07,19,12.80
2009,06,07,07,20,12.80
2009,06,07,07,21,12.90
2009,06,07,07,22,12.90
2009,06,07,07,23,12.90
2009,06,07,07,24,13.00
2009,06,07,07,25,13.00
2009,06,07,07,26,13.00
2009,06,07,07,27,13.10
2009,06,07,07,28,13.10
2009,06,07,07,29,13.20
2009,06,07,07,30,13.20
2009,06,07,07,31,13.20
2009,06,07,07,32,13.30
2009,06,07,07,33,13.30
2009,06,07,07,34,13.40
2009,06,07,07,35,13.40
2009,06,07,07,36,13.50
2009,06,07,07,37,13.50
2009,06,07,07,38,13.60
2009,06,07,07,39,13.60
2009,06,07,07,40,13.60
2009,06,07,07,41,13.70
2009,06,07,07,42,13.70
2009,06,07,07,43,13.70
2009,06,07,07,44,13.70
2009,06,07,07,45,13.70
2009,06,07,07,46,13.70
2009,06,07,07,47,13.70
2009,06,07,07,48,13.60
2009,06,07,07,49,13.60
2009,06,07,07,50,13.60
2009,06,07,07,51,13.60
2009,06,07,07,52,13.60
2009,06,07,07,53,13.60
2009,06,07,07,54,13.60
2009,06,07,07,55,13.60
2009,06,07,07,56,13.60
2009,06,07,07,57,13.60
2009,06,07,07,58,13.60
2009,06,07,07,59,13.60
2009,06,07,08,00,13.60
2009,06,07,08,01,13.70
2009,06,07,08,02,13.70
2009,06,07,08,03,13.70
2009,06,07,08,04,13.70
2009,06,07,08,05,13.70
2009,06,07,08,06,13.70
2009,06,07,08,07,13.80
2009,06,07,08,08,13.80
2009,06,07,08,09,13.80
2009,06,07,08,10,13.80
2009,06,07,08,11,13.80
2009,06,07,08,12,13.80
2009,06,07,08,13,13.90
2009,06,07,08,14,13.90
2009,06,07,08,15,13.90
2009,06,07,08,16,14.00
2009,06,07,08,17,14.00
2009,06,07,08,18,14.10
2009,06,07,08,19,14.10
2009,06,07,08,20,14.10
2009,06,07,08,21,14.20
2009,06,07,08,22,14.20
2009,06,07,08,23,14.20
2009,06,07,08,24,14.20
2009,06,07,08,25,14.20
2009,06,07,08,26,14.20
2009,06,07,08,27,14.20
2009,06,07,08,28,14.20
2009,06,07,08,29,14.20
2009,06,07,08,30,14.20
2009,06,07,08,31,14.20
2009,06,07,08,32,14.20
2009,06,07,08,33,14.20
2009,06,07,08,34,14.20
2009,06,07,08,35,14.30
2009,06,07,08,36,14.30
2009,06,07,08,37,14.30
2009,06,07,08,38,14.30
2009,06,07,08,39,14.30
2009,06,07,08,40,14.30
2009,06,07,08,41,14.30
2009,06,07,08,42,14.30
2009,06,07,08,43,14.30
2009,06,07,08,44,14.30
2009,06,07,08,45,14.30
2009,06,07,08,46,14.30
2009,06,07,08,47,14.30
2009,06,07,08,48,14.30
2009,06,07,08,49,14.30
2009,06,07,08,50,14.40
2009,06,07,08,51,14.40
2009,06,07,08,52,14.40
2009,06,07,08,53,14.50
2009,06,07,08,54,14.50
2009,06,07,08,55,14.60
2009,06,07,08,56,14.60
2009,06,07,08,57,14.70
2009,06,07,08,58,14.70
2009,06,07,08,59,14.70
2009,06,07,09,00,14.70
2009,06,07,09,01,14.70
2009,06,07,09,02,14.70
2009,06,07,09,03,14.70
2009,06,07,09,04,14.80
2009,06,07,09,05,14.80
2009,06,07,09,06,14.80
2009,06,07,09,07,14.80
2009,06,07,09,08,14.80
2009,06,07,09,09,14.80
2009,06,07,09,10,14.80
2009,06,07,09,11,14.90
2009,06,07,09,12,14.90
2009,06,07,09,13,14.90
2009,06,07,09,14,14.90
2009,06,07,09,15,14.90
2009,06,07,09,16,14.90
2009,06,07,09,17,15.00
2009,06,07,09,18,15.00
2009,06,07,09,19,15.00
2009,06,07,09,20,15.00
2009,06,07,09,21,15.00
2009,06,07,09,22,15.00
2009,06,07,09,23,15.10
2009,06,07,09,24,15.10
2009,06,07,09,25,15.10
2009,06,07,09,26,15.10
2009,06,07,09,27,15.10
2009,06,07,09,28,15.20
2009,06,07,09,29,15.20
2009,06,07,09,30,15.20
2009,06,07,09,31,15.20
2009,06,07,09,32,15.30
2009,06,07,09,33,15.30
2009,06,07,09,34,15.30
2009,06,07,09,35,15.40
2009,06,07,09,36,15.40
2009,06,07,09,37,15.40
2009,06,07,09,38,15.50
2009,06,07,09,39,15.60
2009,06,07,09,40,15.60
2009,06,07,09,41,15.70
2009,06,07,09,42,15.80
2009,06,07,09,43,15.90
2009,06,07,09,44,16.00
2009,06,07,09,45,16.00
2009,06,07,09,46,16.10
2009,06,07,09,47,16.20
2009,06,07,09,48,16.20
2009,06,07,09,49,16.30
2009,06,07,09,50,16.30
2009,06,07,09,51,16.30
2009,06,07,09,52,16.30
2009,06,07,09,53,16.30
2009,06,07,09,54,16.40
2009,06,07,09,55,16.40
2009,06,07,09,56,16.50
2009,06,07,09,57,16.50
2009,06,07,09,58,16.60
2009,06,07,09,59,16.60
2009,06,07,10,00,16.60
2009,06,07,10,01,16.60
2009,06,07,10,02,16.50
2009,06,07,10,03,16.50
2009,06,07,10,04,16.40
2009,06,07,10,05,16.30
2009,06,07,10,06,16.20
2009,06,07,10,07,16.20
2009,06,07,10,08,16.10
2009,06,07,10,09,16.10
2009,06,07,10,10,16.00
2009,06,07,10,11,16.00
2009,06,07,10,12,16.00
2009,06,07,10,13,16.00
2009,06,07,10,14,16.00
2009,06,07,10,15,16.00
2009,06,07,10,16,16.00
2009,06,07,10,17,16.10
2009,06,07,10,18,16.20
2009,06,07,10,19,16.20
2009,06,07,10,20,16.30
2009,06,07,10,21,16.40
2009,06,07,10,22,16.40
2009,06,07,10,23,16.50
2009,06,07,10,24,16.60
2009,06,07,10,25,16.60
2009,06,07,10,26,16.70
2009,06,07,10,27,16.70
2009,06,07,10,28,16.80
2009,06,07,10,29,16.80
2009,06,07,10,30,16.80
2009,06,07,10,31,16.70
2009,06,07,10,32,16.60
2009,06,07,10,33,16.50
2009,06,07,10,34,16.40
2009,06,07,10,35,16.40
2009,06,07,10,36,16.40
2009,06,07,10,37,16.50
2009,06,07,10,38,16.50
2009,06,07,10,39,16.60
2009,06,07,10,40,16.70
2009,06,07,10,41,16.70
2009,06,07,10,42,16.80
2009,06,07,10,43,16.80
2009,06,07,10,44,16.90
2009,06,07,10,45,16.90
2009,06,07,10,46,16.90
2009,06,07,10,47,16.90
2009,06,07,10,48,17.00
2009,06,07,10,49,17.10
2009,06,07,10,50,17.10
2009,06,07,10,51,17.20
2009,06,07,10,52,17.30
2009,06,07,10,53,17.30
2009,06,07,10,54,17.30
2009,06,07,10,55,17.30
2009,06,07,10,56,17.40
2009,06,07,10,57,17.40
2009,06,07,10,58,17.50
2009,06,07,10,59,17.50
2009,06,07,11,00,17.50
2009,06,07,11,01,17.60
2009,06,07,11,02,17.60
2009,06,07,11,03,17.70
2009,06,07,11,04,17.70
2009,06,07,11,05,17.70
2009,06,07,11,06,17.70
2009,06,07,11,07,17.70
2009,06,07,11,08,17.70
2009,06,07,11,09,17.70
2009,06,07,11,10,17.70
2009,06,07,11,11,17.70
2009,06,07,11,12,17.80
2009,06,07,11,13,17.80
2009,06,07,11,14,17.80
2009,06,07,11,15,17.80
2009,06,07,11,16,17.80
2009,06,07,11,17,17.70
2009,06,07,11,18,17.60
2009,06,07,11,19,17.60
2009,06,07,11,20,17.50
2009,06,07,11,21,17.50
2009,06,07,11,22,17.30
2009,06,07,11,23,17.20
2009,06,07,11,24,17.10
2009,06,07,11,25,17.00
2009,06,07,11,26,17.00
2009,06,07,11,27,16.90
2009,06,07,11,28,16.90
2009,06,07,11,29,16.80
2009,06,07,11,30,16.80
2009,06,07,11,31,16.80
2009,06,07,11,32,16.80
2009,06,07,11,33,16.80
2009,06,07,11,34,16.80
2009,06,07,11,35,16.80
2009,06,07,11,36,16.80
2009,06,07,11,37,16.80
2009,06,07,11,38,16.80
2009,06,07,11,39,16.80
2009,06,07,11,40,16.90
2009,06,07,11,41,17.00
2009,06,07,11,42,17.10
2009,06,07,11,43,17.20
2009,06,07,11,44,17.20
2009,06,07,11,45,17.30
2009,06,07,11,46,17.30
2009,06,07,11,47,17.40
2009,06,07,11,48,17.50
2009,06,07,11,49,17.60
2009,06,07,11,50,17.70
2009,06,07,11,51,17.80
2009,06,07,11,52,17.90
2009,06,07,11,53,17.90
2009,06,07,11,54,17.90
2009,06,07,11,55,17.90
2009,06,07,11,56,18.10
2009,06,07,11,57,18.20
2009,06,07,11,58,18.20
2009,06,07,11,59,18.30
2009,06,07,12,00,18.30
2009,06,07,12,01,18.30
2009,06,07,12,02,18.40
2009,06,07,12,03,18.50
2009,06,07,12,04,18.60
2009,06,07,12,05,18.60
2009,06,07,12,06,18.60
2009,06,07,12,07,18.60
2009,06,07,12,08,18.50
2009,06,07,12,09,18.40
2009,06,07,12,10,18.40
2009,06,07,12,11,18.30
2009,06,07,12,12,18.30
2009,06,07,12,13,18.30
2009,06,07,12,14,18.30
2009,06,07,12,15,18.20
2009,06,07,12,16,18.20
2009,06,07,12,17,18.10
2009,06,07,12,18,18.10
2009,06,07,12,19,18.10
2009,06,07,12,20,18.10
2009,06,07,12,21,18.10
2009,06,07,12,22,18.10
2009,06,07,12,23,18.10
2009,06,07,12,24,18.10
2009,06,07,12,25,18.10
2009,06,07,12,26,18.20
2009,06,07,12,27,18.20
2009,06,07,12,28,18.20
2009,06,07,12,29,18.20
2009,06,07,12,30,18.20
2009,06,07,12,31,18.30
2009,06,07,12,32,18.30
2009,06,07,12,33,18.40
2009,06,07,12,34,18.40
2009,06,07,12,35,18.50
2009,06,07,12,36,18.50
2009,06,07,12,37,18.60
2009,06,07,12,38,18.60
2009,06,07,12,39,18.50
2009,06,07,12,40,18.50
2009,06,07,12,41,18.50
2009,06,07,12,42,18.50
2009,06,07,12,43,18.40
2009,06,07,12,44,18.40
2009,06,07,12,45,18.40
2009,06,07,12,46,18.40
2009,06,07,12,47,18.40
2009,06,07,12,48,18.40
2009,06,07,12,49,18.40
2009,06,07,12,50,18.40
2009,06,07,12,51,18.40
2009,06,07,12,52,18.40
2009,06,07,12,53,18.30
2009,06,07,12,54,18.30
2009,06,07,12,55,18.40
2009,06,07,12,56,18.30
2009,06,07,12,57,18.30
2009,06,07,12,58,18.30
2009,06,07,12,59,18.30
2009,06,07,13,00,18.20
2009,06,07,13,01,18.20
2009,06,07,13,02,18.20
2009,06,07,13,03,18.20
2009,06,07,13,04,18.10
2009,06,07,13,05,18.10
2009,06,07,13,06,18.10
2009,06,07,13,07,18.10
2009,06,07,13,08,18.10
2009,06,07,13,09,18.10
2009,06,07,13,10,18.10
2009,06,07,13,11,18.10
2009,06,07,13,12,18.20
2009,06,07,13,13,18.20
2009,06,07,13,14,18.20
2009,06,07,13,15,18.20
2009,06,07,13,16,18.30
2009,06,07,13,17,18.30
2009,06,07,13,18,18.50
2009,06,07,13,19,18.50
2009,06,07,13,20,18.60
2009,06,07,13,21,18.60
2009,06,07,13,22,18.60
2009,06,07,13,23,18.60
2009,06,07,13,24,18.60
2009,06,07,13,25,18.60
2009,06,07,13,26,18.70
2009,06,07,13,27,18.70
2009,06,07,13,28,18.70
2009,06,07,13,29,18.60
2009,06,07,13,30,18.50
2009,06,07,13,31,18.40
2009,06,07,13,32,18.40
2009,06,07,13,33,18.40
2009,06,07,13,34,18.40
2009,06,07,13,35,18.40
2009,06,07,13,36,18.40
2009,06,07,13,37,18.40
2009,06,07,13,38,18.30
2009,06,07,13,39,18.30
2009,06,07,13,40,18.30
2009,06,07,13,41,18.30
2009,06,07,13,42,18.40
2009,06,07,13,43,18.40
2009,06,07,13,44,18.40
2009,06,07,13,45,18.50
2009,06,07,13,46,18.50
2009,06,07,13,47,18.50
2009,06,07,13,48,18.50
2009,06,07,13,49,18.50
2009,06,07,13,50,18.40
2009,06,07,13,51,18.30
2009,06,07,13,52,18.30
2009,06,07,13,53,18.30
2009,06,07,13,54,18.40
2009,06,07,13,55,18.40
2009,06,07,13,56,18.50
2009,06,07,13,57,18.60
2009,06,07,13,58,18.70
2009,06,07,13,59,18.70
2009,06,07,14,00,18.70
2009,06,07,14,01,18.70
2009,06,07,14,02,18.80
2009,06,07,14,03,18.80
2009,06,07,14,04,18.90
2009,06,07,14,05,18.80
2009,06,07,14,06,18.90
2009,06,07,14,07,18.80
2009,06,07,14,08,18.80
2009,06,07,14,09,18.80
2009,06,07,14,10,18.80
2009,06,07,14,11,18.80
2009,06,07,14,12,18.70
2009,06,07,14,13,18.70
2009,06,07,14,14,18.60
2009,06,07,14,15,18.60
2009,06,07,14,16,18.60
2009,06,07,14,17,18.70
2009,06,07,14,18,18.70
2009,06,07,14,19,18.70
2009,06,07,14,20,18.70
2009,06,07,14,21,18.70
2009,06,07,14,22,18.70
2009,06,07,14,23,18.70
2009,06,07,14,24,18.60
2009,06,07,14,25,18.60
2009,06,07,14,26,18.60
2009,06,07,14,27,18.60
2009,06,07,14,28,18.60
2009,06,07,14,29,18.50
2009,06,07,14,30,18.50
2009,06,07,14,31,18.60
2009,06,07,14,32,18.60
2009,06,07,14,33,18.60
2009,06,07,14,34,18.70
2009,06,07,14,35,18.70
2009,06,07,14,36,18.70
2009,06,07,14,37,18.70
2009,06,07,14,38,18.70
2009,06,07,14,39,18.70
2009,06,07,14,40,18.70
2009,06,07,14,41,18.70
2009,06,07,14,42,18.80
2009,06,07,14,43,18.80
2009,06,07,14,44,18.80
2009,06,07,14,45,18.70
2009,06,07,14,46,18.70
2009,06,07,14,47,18.60
2009,06,07,14,48,18.60
2009,06,07,14,49,18.60
2009,06,07,14,50,18.50
2009,06,07,14,51,18.50
2009,06,07,14,52,18.40
2009,06,07,14,53,18.30
2009,06,07,14,54,18.30
2009,06,07,14,55,18.20
2009,06,07,14,56,18.20
2009,06,07,14,57,18.10
2009,06,07,14,58,18.10
2009,06,07,14,59,18.10
2009,06,07,15,00,18.00
2009,06,07,15,01,18.00
2009,06,07,15,02,17.90
2009,06,07,15,03,17.90
2009,06,07,15,04,17.80
2009,06,07,15,05,17.80
2009,06,07,15,06,17.80
2009,06,07,15,07,17.80
2009,06,07,15,08,17.80
2009,06,07,15,09,17.80
2009,06,07,15,10,17.80
2009,06,07,15,11,17.80
2009,06,07,15,12,17.80
2009,06,07,15,13,17.80
2009,06,07,15,14,17.80
2009,06,07,15,15,17.80
2009,06,07,15,16,17.80
2009,06,07,15,17,17.90
2009,06,07,15,18,17.90
2009,06,07,15,19,17.90
2009,06,07,15,20,17.90
2009,06,07,15,21,17.90
2009,06,07,15,22,17.90
2009,06,07,15,23,17.80
2009,06,07,15,24,17.80
2009,06,07,15,25,17.70
2009,06,07,15,26,17.70
2009,06,07,15,27,17.70
2009,06,07,15,28,17.70
2009,06,07,15,29,17.70
2009,06,07,15,30,17.80
2009,06,07,15,31,17.80
2009,06,07,15,32,17.90
2009,06,07,15,33,18.00
2009,06,07,15,34,18.10
2009,06,07,15,35,18.10
2009,06,07,15,36,18.20
2009,06,07,15,37,18.20
2009,06,07,15,38,18.30
2009,06,07,15,39,18.40
2009,06,07,15,40,18.40
2009,06,07,15,41,18.40
2009,06,07,15,42,18.40
2009,06,07,15,43,18.40
2009,06,07,15,44,18.40
2009,06,07,15,45,18.40
2009,06,07,15,46,18.40
2009,06,07,15,47,18.40
2009,06,07,15,48,18.40
2009,06,07,15,49,18.40
2009,06,07,15,50,18.40
2009,06,07,15,51,18.40
2009,06,07,15,52,18.40
2009,06,07,15,53,18.50
2009,06,07,15,54,18.60
2009,06,07,15,55,18.60
2009,06,07,15,56,18.60
2009,06,07,15,57,18.60
2009,06,07,15,58,18.60
2009,06,07,15,59,18.60
2009,06,07,16,00,18.70
2009,06,07,16,01,18.60
2009,06,07,16,02,18.60
2009,06,07,16,03,18.50
2009,06,07,16,04,18.50
2009,06,07,16,05,18.50
2009,06,07,16,06,18.50
2009,06,07,16,07,18.40
2009,06,07,16,08,18.40
2009,06,07,16,09,18.40
2009,06,07,16,10,18.40
2009,06,07,16,11,18.30
2009,06,07,16,12,18.30
2009,06,07,16,13,18.30
2009,06,07,16,14,18.20
2009,06,07,16,15,18.20
2009,06,07,16,16,18.20
2009,06,07,16,17,18.20
2009,06,07,16,18,18.20
2009,06,07,16,19,18.20
2009,06,07,16,20,18.20
2009,06,07,16,21,18.20
2009,06,07,16,22,18.20
2009,06,07,16,23,18.20
2009,06,07,16,24,18.20
2009,06,07,16,25,18.20
2009,06,07,16,26,18.30
2009,06,07,16,27,18.30
2009,06,07,16,28,18.40
2009,06,07,16,29,18.40
2009,06,07,16,30,18.40
2009,06,07,16,31,18.40
2009,06,07,16,32,18.30
2009,06,07,16,33,18.30
2009,06,07,16,34,18.30
2009,06,07,16,35,18.30
2009,06,07,16,36,18.30
2009,06,07,16,37,18.40
2009,06,07,16,38,18.40
2009,06,07,16,39,18.40
2009,06,07,16,40,18.50
2009,06,07,16,41,18.50
2009,06,07,16,42,18.50
2009,06,07,16,43,18.50
2009,06,07,16,44,18.60
2009,06,07,16,45,18.60
2009,06,07,16,46,18.60
2009,06,07,16,47,18.60
2009,06,07,16,48,18.60
2009,06,07,16,49,18.60
2009,06,07,16,50,18.60
2009,06,07,16,51,18.70
2009,06,07,16,52,18.70
2009,06,07,16,53,18.70
2009,06,07,16,54,18.70
2009,06,07,16,55,18.80
2009,06,07,16,56,18.70
2009,06,07,16,57,18.70
2009,06,07,16,58,18.70
2009,06,07,16,59,18.70
2009,06,07,17,00,18.70
2009,06,07,17,01,18.70
2009,06,07,17,02,18.70
2009,06,07,17,03,18.70
2009,06,07,17,04,18.70
2009,06,07,17,05,18.60
2009,06,07,17,06,18.60
2009,06,07,17,07,18.60
2009,06,07,17,08,18.70
2009,06,07,17,09,18.70
2009,06,07,17,10,18.60
2009,06,07,17,11,18.60
2009,06,07,17,12,18.60
2009,06,07,17,13,18.70
2009,06,07,17,14,18.70
2009,06,07,17,15,18.70
2009,06,07,17,16,18.70
2009,06,07,17,17,18.80
2009,06,07,17,18,18.80
2009,06,07,17,19,18.90